www.pogodaiklimat.ru

Погода и климат >> Архив погоды >> Бразилия >> Рио-де-Жанейро >> Макаэ


ПОГОДА в Макаэ

  • Прогноз погоды в Макаэ
  • Монитор погоды в Макаэ

АРХИВ ПОГОДЫ в Макаэ

Время (UTC), дата Ветер
(напр.,м/с)
 
Видим.   Явления Облачность Т
(С)
Тd
(С)
f
(%)
Тe
(С)
Тes
(С)
Комфортность P
(гПа)
Po
(гПа)
Тmin
(С)
Tmax
(С)
R
(мм)
R24
(мм)
S
(см)
19 12.05 ЮВ 1
{3}
н/о н/о +28.0 +21.2 67 +35 +35 очень
душно
1012.7 1009.9
20 12.05 В 1
{2}
н/о н/о +26.1 +21.8 77 +34 +34 очень
душно
1013.8 1011.0
21 12.05 СВ 1
{2}
н/о н/о +25.0 +22.0 83 +32 +32 очень
душно
1014.7 1011.8
22 12.05 ЮЗ 1
{1}
н/о н/о +24.4 +22.2 88 +32 +32 очень
душно
1015.3 1012.4
23 12.05 штиль 0
{1}
н/о н/о +23.5 +21.7 90 +30 +30 очень
душно
1015.8 1012.9
00 13.05 З 1
{1}
н/о н/о +22.6 +21.2 92 +30 +30 очень
душно
1016.0 1013.1
01 13.05 СЗ 1
{1}
н/о н/о +22.7 +21.3 92 +30 +30 очень
душно
1016.3 1013.4
02 13.05 СВ 1
{1}
н/о н/о +21.9 +20.7 93 +28 +28 душно 1016.1 1013.2
03 13.05 штиль 0
{1}
н/о н/о +21.8 +20.6 93 +28 +28 душно 1015.8 1012.9
04 13.05 ЮЗ 1
{1}
н/о н/о +21.3 +20.3 94 +26 +26 душно 1015.6 1012.7
05 13.05 СЗ 1
{1}
н/о н/о +21.1 +20.2 95 +26 +26 душно 1015.1 1012.2
06 13.05 З 1
{1}
н/о н/о +20.8 +19.9 95 +27 +27 душно 1015.1 1012.2
07 13.05 СВ 1
{1}
н/о н/о +21.0 +20.2 95 +28 +28 очень
душно
1015.2 1012.3
08 13.05 СВ 1
{1}
н/о н/о +20.7 +19.9 95 +27 +27 душно 1015.6 1012.7
09 13.05 З 1
{1}
н/о н/о +20.2 +19.5 96 +25 +25 комфорт 1016.5 1013.6
10 13.05 З 1
{1}
н/о н/о +21.5 +20.7 95 +27 +27 душно 1017.1 1014.2
11 13.05 СЗ 1
{2}
н/о н/о +24.9 +21.3 80 +31 +31 очень
душно
1017.6 1014.7
12 13.05 ЮЗ 2
{4}
н/о н/о +28.3 +21.9 68 +36 +36 очень
душно
1017.7 1014.9
13 13.05 Ю 1
{4}
н/о н/о +30.2 +21.9 61 +39 +39 очень
душно
1017.2 1014.4
14 13.05 Ю 1
{4}
н/о н/о +30.2 +22.2 62 +39 +39 очень
душно
1016.6 1013.8
15 13.05 Ю 1
{4}
н/о н/о +30.2 +22.5 63 +39 +39 очень
душно
1016.0 1013.2
16 13.05 Ю 1
{4}
н/о н/о +29.4 +23.2 69 +39 +39 очень
душно
1015.3 1012.5
17 13.05 Ю 2
{4}
н/о н/о +29.2 +22.3 66 +38 +38 очень
душно
1015.0 1012.2
18 13.05 Ю 2
{4}
н/о н/о +28.4 +22.7 71 +38 +38 очень
душно
1015.3 1012.5
19 13.05 Ю 2
{4}
н/о н/о +26.2 +23.0 83 +35 +35 очень
душно
1015.6 1012.8
20 13.05 Ю 1
{4}
н/о н/о +25.5 +22.9 86 +34 +34 очень
душно
1016.0 1013.1
21 13.05 Ю 1
{3}
н/о н/о +25.3 +22.8 86 +33 +33 очень
душно
1016.5 1013.6
22 13.05 Ю 1
{3}
н/о н/о +25.1 +22.4 85 +33 +33 очень
душно
1016.9 1014.0
23 13.05 ЮЗ 1
{2}
н/о н/о +24.6 +22.2 87 +32 +32 очень
душно
1017.2 1014.3
00 14.05 З 1
{2}
н/о н/о +24.4 +22.5 89 +32 +32 очень
душно
1017.2 1014.3
01 14.05 СЗ 1
{2}
н/о н/о +23.8 +22.3 91 +31 +31 очень
душно
1017.2 1014.3
02 14.05 ЮЗ 1
{2}
н/о н/о +23.6 +22.4 93 +31 +31 очень
душно
1016.8 1013.9
03 14.05 ЮЗ 1
{2}
н/о н/о +23.9 +22.7 93 +31 +31 очень
душно
1016.5 1013.6
04 14.05 З 1
{2}
н/о н/о +24.1 +22.7 92 +32 +32 очень
душно
1016.2 1013.3
05 14.05 З 1
{2}
н/о н/о +23.2 +22.2 94 +32 +32 очень
душно
1015.8 1012.9
06 14.05 ЮЗ 1
{2}
н/о н/о +22.8 +21.9 95 +31 +31 очень
душно
1015.3 1012.4
07 14.05 ЮЗ 1
{2}
н/о н/о +22.8 +21.9 95 +31 +31 очень
душно
1015.3 1012.4
08 14.05 З 1
{2}
н/о н/о +22.6 +21.7 95 +30 +30 очень
душно
1015.5 1012.6
09 14.05 З 1
{1}
н/о н/о +22.2 +21.4 95 +29 +29 очень
душно
1015.8 1012.9
10 14.05 СЗ 1
{1}
н/о н/о +23.1 +22.3 95 +32 +32 очень
душно
1016.3 1013.4
11 14.05 С 1
{1}
н/о н/о +26.5 +23.6 84 +36 +36 очень
душно
1016.2 1013.4
12 14.05 Ю 1
{2}
н/о н/о +27.4 +22.5 75 +36 +36 очень
душно
1016.4 1013.6
13 14.05 Ю 1
{2}
н/о н/о +29.8 +22.4 65 +39 +39 очень
душно
1015.7 1012.9
14 14.05 В 1
{2}
н/о н/о +29.7 +22.0 63 +38 +38 очень
душно
1014.6 1011.8
15 14.05 ЮВ 1
{3}
н/о н/о +29.9 +21.9 62 +38 +38 очень
душно
1013.8 1011.0
16 14.05 ЮВ 1
{3}
н/о н/о +30.0 +21.8 62 +39 +39 очень
душно
1012.9 1010.1
17 14.05 ЮВ 1
{3}
н/о н/о +28.5 +21.6 66 +36 +36 очень
душно
1012.5 1009.7
18 14.05 ЮВ 1
{3}
н/о н/о +27.4 +22.1 73 +36 +36 очень
душно
1012.4 1009.6
19 14.05 ЮВ 1
{2}
н/о н/о +25.8 +22.1 80 +33 +33 очень
душно
1012.6 1009.8
20 14.05 ЮВ 1
{2}
н/о н/о +24.8 +21.8 83 +32 +32 очень
душно
1013.2 1010.3
21 14.05 В 1
{2}
н/о н/о +24.4 +21.8 85 +31 +31 очень
душно
1013.6 1010.7
22 14.05 ЮВ 1
{2}
н/о н/о +24.8 +22.1 85 +32 +32 очень
душно
1014.3 1011.4
23 14.05 ЮВ 1
{2}
н/о н/о +24.8 +21.7 83 +32 +32 очень
душно
1014.6 1011.7
00 15.05 В 2
{3}
н/о н/о +25.3 +21.9 81 +33 +33 очень
душно
1014.7 1011.8
01 15.05 В 1
{3}
н/о н/о +23.7 +22.2 91 +31 +31 очень
душно
1014.9 1012.0 0.6
02 15.05 ЮВ 1
{3}
н/о н/о +23.6 +22.1 91 +30 +30 очень
душно
1014.7 1011.8
03 15.05 В 2
{3}
н/о н/о +24.4 +21.4 83 +31 +31 очень
душно
1014.2 1011.3
04 15.05 С 1
{3}
н/о н/о +24.0 +21.6 86 +31 +31 очень
душно
1013.8 1010.9
05 15.05
{4}
н/о н/о +22.8 +21.8 94 1013.3 1010.4 11
06 15.05 СЗ 1
{4}
н/о н/о +22.6 +21.3 92 +30 +30 очень
душно
1013.2 1010.3 0.2
07 15.05 С 1
{2}
н/о н/о +22.7 +21.7 94 +30 +30 очень
душно
1012.6 1009.7
08 15.05 З 1
{2}
н/о н/о +22.5 +21.6 95 +30 +30 очень
душно
1013.9 1011.0 2
09 15.05 СВ 1
{2}
н/о н/о +22.1 +21.2 95 +29 +29 очень
душно
1013.7 1010.8 5
10 15.05 СЗ 1
{2}
н/о н/о +22.2 +21.4 95 +29 +29 очень
душно
1014.8 1011.9 0.4
11 15.05 Ю 1
{1}
н/о н/о +22.4 +21.7 96 +30 +30 очень
душно
1015.9 1013.0
12 15.05 ЮВ 2
{6}
н/о н/о +20.1 +19.4 96 +24 +24 комфорт 1018.3 1015.4 29
13 15.05 ЮВ 1
{5}
н/о н/о +19.3 +18.7 96 +23 +23 комфорт 1018.2 1015.3 18
14 15.05 Ю 1
{4}
н/о н/о +20.8 +20.2 96 +27 +27 душно 1017.7 1014.8 0.8
15 15.05 С 1
{2}
н/о н/о +22.8 +17.5 72 +28 +28 душно 1017.1 1014.2
16 15.05 СЗ 1
{2}
н/о н/о +22.9 +18.6 77 +29 +29 очень
душно
1015.9 1013.0
17 15.05 С 1
{2}
н/о н/о +24.6 +17.2 63 +28 +28 душно 1015.3 1012.4
18 15.05 З 1
{2}
н/о н/о +24.1 +17.5 67 +28 +28 душно 1015.3 1012.4
19 15.05 Ю 1
{2}
н/о н/о +23.2 +19.5 80 +30 +30 очень
душно
1015.2 1012.3
20 15.05 ЮЗ 1
{2}
н/о н/о +21.4 +18.4 83 +26 +26 душно 1015.6 1012.7
21 15.05 Ю 1
{1}
н/о н/о +20.9 +17.8 82 +26 +26 душно 1016.5 1013.6
22 15.05 ЮЗ 1
{1}
н/о н/о +21.2 +18.2 83 +25 +25 комфорт 1017.3 1014.4
23 15.05 Ю 1
{1}
н/о н/о +20.7 +19.3 92 +27 +27 душно 1017.8 1014.9
00 16.05 СЗ 1
{2}
н/о н/о +20.7 +19.8 95 +26 +26 душно 1018.1 1015.2 5
01 16.05 СЗ 1
{2}
н/о н/о +20.4 +19.6 95 +26 +26 душно 1018.3 1015.4 8
02 16.05 З 1
{2}
н/о н/о +20.3 +19.6 96 +25 +25 комфорт 1018.1 1015.2
03 16.05 З 1
{2}
н/о н/о +20.2 +19.5 96 +25 +25 комфорт 1017.8 1014.9
04 16.05 З 1
{2}
н/о н/о +19.7 +19.0 96 +24 +24 комфорт 1017.7 1014.8
05 16.05 СЗ 1
{2}
н/о н/о +19.7 +19.0 96 +24 +24 комфорт 1017.1 1014.2
06 16.05 СЗ 1
{1}
н/о н/о +19.9 +19.2 96 +25 +25 комфорт 1017.0 1014.1
07 16.05 З 1
{1}
н/о н/о +19.9 +19.2 96 +25 +25 комфорт 1016.8 1013.9
08 16.05 ЮЗ 1
{2}
н/о н/о +19.8 +19.1 96 +24 +24 комфорт 1016.9 1014.0
09 16.05 ЮЗ 1
{2}
н/о н/о +19.7 +19.1 96 +24 +24 комфорт 1017.8 1014.9
10 16.05 З 1
{2}
н/о н/о +20.4 +19.8 96 +26 +26 душно 1018.3 1015.4 1
11 16.05 З 1
{2}
н/о н/о +20.9 +20.2 96 +27 +27 душно 1018.9 1016.0 0.6
12 16.05 З 1
{2}
н/о н/о +22.2 +21.5 96 +29 +29 очень
душно
1019.3 1016.4 2
13 16.05 З 1
{2}
н/о н/о +24.6 +22.8 90 +33 +33 очень
душно
1019.3 1016.4
14 16.05 Ю 1
{3}
н/о н/о +23.1 +21.0 88 +31 +31 очень
душно
1019.0 1016.1 0.8
15 16.05 Ю 1
{3}
н/о н/о +24.7 +22.8 89 +33 +33 очень
душно
1018.7 1015.8
16 16.05 ЮВ 1
{2}
н/о н/о +23.9 +21.6 87 +31 +31 очень
душно
1018.3 1015.4
17 16.05 Ю 1
{3}
н/о н/о +25.1 +21.9 82 +32 +32 очень
душно
1017.6 1014.7 0.2
18 16.05 Ю 1
{3}
н/о н/о +25.1 +21.2 79 +32 +32 очень
душно
1017.7 1014.8
19 16.05 Ю 1
{2}
н/о н/о +23.2 +20.3 84 +30 +30 очень
душно
1018.1 1015.2
20 16.05 Ю 1
{2}
н/о н/о +21.8 +18.9 84 +27 +27 душно 1018.3 1015.4
21 16.05 З 1
{2}
н/о н/о +21.7 +19.9 90 +27 +27 душно 1018.5 1015.6
22 16.05 З 1
{2}
н/о н/о +21.3 +20.1 93 +26 +26 душно 1018.8 1015.9
23 16.05 СЗ 1
{2}
н/о н/о +21.3 +20.4 95 +27 +27 душно 1019.3 1016.4 2
00 17.05 ЮВ 2
{4}
н/о н/о +21.3 +20.6 96 +27 +27 душно 1019.5 1016.6 0.4
01 17.05 ЮВ 1
{4}
н/о н/о +21.2 +20.4 95 +26 +26 душно 1019.7 1016.8 0.2
02 17.05 З 1
{1}
н/о н/о +21.1 +20.4 96 +26 +26 душно 1019.2 1016.3 0.4
03 17.05 СВ 1
{3}
н/о н/о +21.1 +20.4 96 +26 +26 душно 1019.0 1016.1 6
04 17.05 С 1
{3}
н/о н/о +20.8 +20.1 96 +27 +27 душно 1018.8 1015.9
05 17.05 В 2
{6}
н/о н/о +21.1 +20.4 96 +26 +26 душно 1018.2 1015.3 1
06 17.05 ЮВ 2
{6}
н/о н/о +21.0 +20.2 95 +27 +27 душно 1017.7 1014.8 3
07 17.05 ЮВ 2
{5}
н/о н/о +20.7 +19.9 95 +26 +26 душно 1017.6 1014.7 1
08 17.05 ЮВ 1
{3}
н/о н/о +20.9 +20.1 95 +27 +27 душно 1017.7 1014.8 0.4
09 17.05 В 2
{3}
н/о н/о +20.5 +19.7 95 +26 +26 душно 1018.6 1015.7 2
10 17.05 СЗ 1
{3}
н/о н/о +20.5 +19.7 95 +26 +26 душно 1019.2 1016.3 4
11 17.05 СЗ 1
{2}
н/о н/о +20.5 +19.8 96 +26 +26 душно 1019.6 1016.7 6
12 17.05 З 1
{3}
н/о н/о +20.4 +19.7 96 +26 +26 душно 1020.6 1017.7 28
13 17.05 Ю 1
{2}
н/о н/о +20.9 +20.3 96 +27 +27 душно 1020.6 1017.7 24
14 17.05 СВ 1
{2}
н/о н/о +20.7 +20.1 96 +27 +27 душно 1020.1 1017.2 20
15 17.05 ЮЗ 1
{6}
н/о н/о +20.5 +19.8 96 +26 +26 душно 1019.5 1016.6 9
16 17.05 СВ 2
{3}
н/о н/о +20.8 +20.1 96 +26 +26 душно 1018.7 1015.8 3
17 17.05 СВ 1
{3}
н/о н/о +20.5 +19.8 96 +26 +26 душно 1018.4 1015.5 5
18 17.05 С 1
{4}
н/о н/о +20.6 +19.9 96 +26 +26 душно 1018.2 1015.3 11
19 17.05 СВ 1
{2}
н/о н/о +20.6 +19.9 96 +27 +27 душно 1018.3 1015.4 2
20 17.05 С 1
{2}
н/о н/о +20.1 +19.4 96 +25 +25 комфорт 1018.6 1015.7 2
21 17.05 СЗ 1
{3}
н/о н/о +19.9 +19.2 96 +24 +24 комфорт 1018.6 1015.7 4
22 17.05 С 1
{3}
н/о н/о +19.9 +19.2 96 +25 +25 комфорт 1019.0 1016.1 2
23 17.05 СЗ 1
{2}
н/о н/о +19.9 +19.2 96 +24 +24 комфорт 1019.4 1016.5 2
00 18.05 З 1
{2}
н/о н/о +19.9 +19.2 96 +25 +25 комфорт 1019.1 1016.2 1
01 18.05 З 1
{3}
н/о н/о +20.0 +19.4 96 +25 +25 комфорт 1019.4 1016.5 13
02 18.05 СЗ 1
{2}
н/о н/о +20.1 +19.5 96 +25 +25 комфорт 1019.3 1016.4 6
04 18.05 0
{2}
н/о н/о +20.7 +20.1 96 1018.3 1015.4 6
05 18.05 СВ 0 н/о н/о +21.1 +20.3 95 +26 +26 душно 1017.8 1014.9 0.6
06 18.05 СВ 2 н/о н/о +21.7 +20.3 92 +27 +27 душно 1017.3 1014.4 0.4
07 18.05 В 3
{6}
н/о н/о +22.0 +19.8 87 +28 +28 душно 1017.4 1014.5
08 18.05 В 2
{6}
н/о н/о +20.9 +19.8 93 +26 +26 душно 1017.8 1014.9 2
09 18.05 В 2
{6}
н/о н/о +21.0 +20.2 95 +27 +27 душно 1018.1 1015.2 1
10 18.05 В 2
{5}
н/о н/о +21.4 +20.0 92 +27 +27 душно 1018.9 1016.0 0.2
11 18.05 В 2
{5}
н/о н/о +22.8 +19.4 81 +29 +29 очень
душно
1019.3 1016.4 2
12 18.05 В 3
{6}
н/о н/о +23.1 +19.1 78 +29 +29 очень
душно
1019.7 1016.8 0.8
13 18.05 В 3
{5}
н/о н/о +23.9 +18.8 73 +29 +29 душно 1019.7 1016.8
14 18.05 В 2
{5}
н/о н/о +23.9 +19.1 75 +29 +29 душно 1019.0 1016.1
15 18.05 В 2
{4}
н/о н/о +24.3 +18.6 71 +29 +29 душно 1018.4 1015.5
16 18.05 В 3
{5}
н/о н/о +23.8 +18.8 74 +29 +29 душно 1017.9 1015.0
17 18.05 В 1
{4}
н/о н/о +21.8 +19.8 88 +27 +27 душно 1017.6 1014.7 1
18 18.05 В 1
{3}
н/о н/о +21.9 +20.8 93 +28 +28 душно 1017.2 1014.3 2
19 18.05 З 1
{1}
н/о н/о +21.7 +20.7 94 +28 +28 душно 1017.0 1014.1
20 18.05 ЮЗ 1
{2}
н/о н/о +21.3 +20.5 95 +27 +27 душно 1017.2 1014.3 0.2
21 18.05 З 1
{2}
н/о н/о +21.0 +20.3 96 +28 +28 очень
душно
1017.7 1014.8 1
22 18.05 С 1
{3}
н/о н/о +21.0 +20.3 96 +27 +27 душно 1018.4 1015.5 3
23 18.05 В 2
{4}
н/о н/о +20.9 +20.3 96 +27 +27 душно 1019.0 1016.1 28
00 19.05 В 2
{4}
н/о н/о +21.4 +20.6 95 +27 +27 душно 1018.3 1015.4 2
01 19.05 С 1
{3}
н/о н/о +21.4 +20.5 95 +27 +27 душно 1019.6 1016.7 4
02 19.05 З 1
{2}
н/о н/о +20.9 +20.2 96 +27 +27 душно 1019.1 1016.2 2
03 19.05 СЗ 1
{2}
н/о н/о +20.6 +19.9 96 +27 +27 душно 1018.4 1015.5
04 19.05 В 1
{1}
н/о н/о +20.3 +19.7 96 +26 +26 душно 1017.5 1014.6
05 19.05 СЗ 1
{2}
н/о н/о +19.9 +19.2 96 +25 +25 комфорт 1016.9 1014.0
06 19.05
{2}
н/о н/о +19.7 +19.1 96 1016.8 1013.9
07 19.05 штиль 0
{1}
н/о н/о +20.0 +19.4 96 +23 +23 комфорт 1017.2 1014.3
08 19.05 СЗ 1
{2}
н/о н/о +19.8 +19.1 96 +24 +24 комфорт 1017.4 1014.5 0.2
09 19.05 З 1
{2}
н/о н/о +19.5 +18.9 96 +24 +24 комфорт 1017.3 1014.4
10 19.05 СВ 1
{2}
н/о н/о +20.1 +19.4 96 +25 +25 комфорт 1017.8 1014.9
11 19.05 СВ 1
{1}
н/о н/о +21.0 +20.2 95 +28 +28 очень
душно
1018.4 1015.5 0.2
12 19.05 С 1
{2}
н/о н/о +24.2 +20.5 80 +30 +30 очень
душно
1018.4 1015.5
13 19.05 С 1
{2}
н/о н/о +23.4 +20.7 85 +31 +31 очень
душно
1018.5 1015.6
14 19.05
{3}
н/о н/о +23.1 +22.1 94 1017.8 1014.9 1
15 19.05 СВ 1
{2}
н/о н/о +24.4 +21.4 83 +31 +31 очень
душно
1017.0 1014.1
16 19.05 СВ 1
{3}
н/о н/о +24.7 +21.3 81 +31 +31 очень
душно
1016.1 1013.2
17 19.05 СЗ 1
{2}
н/о н/о +23.4 +20.8 85 +31 +31 очень
душно
1015.6 1012.7
18 19.05 З 1
{3}
н/о н/о +21.8 +20.6 93 +28 +28 душно 1015.5 1012.6 1
19 19.05 СЗ 1
{2}
н/о н/о +22.4 +21.1 92 +29 +29 очень
душно
1015.8 1012.9 0.2

 

Местоположение метеостанции Макаэ (Рио-де-Жанейро, Бразилия): широта -22.38 долгота -41.81 высота над уровнем моря 34 м.

В архиве по умолчанию представлена погода в Макаэ за последнюю неделю. Архивные данные за месяц целиком и за предыдущие месяцы, начиная с января 2011 года, Вы можете получить, выбрав интересующий диапазон дат из раскрывающегося списка и нажав кнопку "Ввод!".


*Определитесь, кто Вы:
робот инопланетянин человек

Внимание! Время в таблицах - всемирное. Для получения местного времени необходимо прибавить поправку, которая равна -3 ч.

Смотрите также архив погоды в соседних городах и на ближайших метеорологических станциях:

Погода в Кордейру (Рио-де-Жанейро, Бразилия) (69 км)
Погода в Силва-Жардине (Рио-де-Жанейро, Бразилия) (70 км)
Погода в Арраял-ду-Кабу (Рио-де-Жанейро, Бразилия) (70 км)
Погода в Кампусе (Рио-де-Жанейро, Бразилия) (86 км)
Погода в Сан-Томе (Рио-де-Жанейро, Бразилия) (87 км)
Погода в Кампусе (Рио-де-Жанейро, Бразилия) (87 км)
Погода в Нова-Фрибургу (Рио-де-Жанейро, Бразилия) (90 км)
Погода в Камбуси (Рио-де-Жанейро, Бразилия) (90 км)
Погода в Сакуареме (Рио-де-Жанейро, Бразилия) (99 км)
Погода в Терезополисе (Рио-де-Жанейро, Бразилия) (122 км)

Пояснения к столбцам:

Ветер - указаны скорость ветра в м/с - средняя за 10 мин, порывы в срок и между сроками (в фигурных скобках) и направление, откуда дует ветер: С - северный, СВ - северо-восточный, В - восточный, ЮВ - юго-восточный, Ю - южный, ЮЗ - юго-западный, З - западный, СЗ - северо-западный.
Видимость - горизонтальная дальность видимости в метрах или километрах. При видимости от 1 до 10 км при отсутствии осадков обычно наблюдается дымка, при ухудшении видимости до 1 км и менее - туман. В сухую погоду видимость может ухудшаться дымом, пылью или мглою.
Явления - указаны атмосферные явления, наблюдавшиеся в срок или в последний час перед сроком; фигурными скобками обозначены явления, наблюдавшиеся между сроками (за 1-3 часа до срока); квадратными скобками обозначены град или гололедные отложения с указанием их диаметра в мм.
Облачность - указаны через наклонную черту общая и нижняя облачность в баллах и высота нижней границы облаков в метрах; квадратными скобками обозначены формы облаков: Ci - перистые, Cs - перисто-слоистые, Cc - перисто-кучевые, Ac - высококучевые, As - высокослоистые, Sc - слоисто-кучевые, Ns - слоисто-дождевые, Cu - кучевые, Cb - кучево-дождевые. Подробнее классификацию облаков см. в Атласе облаков (PDF).
T - Температура воздуха - температура, измеренная на высоте 2 м над землей.
Td - Температура точки росы - температура, при понижении до которой содержащийся в воздухе водяной пар достигнет насыщения.
f - Относительная влажность воздуха - влажноcть воздуха, измеренная на высоте 2 м над землей.
Te - Эффективная температура - температура, которую ощущает одетый по сезону человек в тени. Характеристика душности погоды. При расчете учитывается влияние влажности воздуха и скорости ветра на теплоощущения человека.
Tes - Эффективная температура на солнце - температура, которую ощущает человек, с поправкой на солнечный нагрев. Характеристика знойности погоды. Зависит от высоты солнца над горизонтом, облачности и скорости ветра. Ночью, в пасмурную погоду, а также при ветре 12 м/с и более поправка равна нулю.
P - Атмосферное давление - приведенное к уровню моря атмосферное давление.
Po - Атмосферное давление - измеренное на уровне метеостанции атмосферное давление.
Tmin - Минимальная температура - минимум температуры воздуха на высоте 2 м над землей.
Tmax - Максимальная температура - максимум температуры воздуха на высоте 2 м над землей.
R - Количество осадков - Количество выпавших осадков за период времени, мм. При наведении курсора мыши на число - период времени, за который выпало указанное количество осадков.
R24 - Количество осадков - Количество выпавших осадков за 24 часа, мм.
S - Снежный покров - Высота снежного покрова, см. При наведении курсора мыши на число - состояние снежного покрова и степень покрытия местности в баллах.